{"data":{"norad_id":69207,"intl_designator":"2026-114AB","name":"STARLINK-37647","alt_names":[],"object_type":"PAYLOAD","status":"ACTIVE","operator":null,"country":"US","launch_date":"2026-05-25","launch_site_code":"AFETR","launch_vehicle":null,"mission":null,"orbit_class":"UNKNOWN","rcs_meters":null,"size_class":null,"mass_kg":null,"dimensions":null,"purposes":["comms"],"wikipedia_slug":null,"has_3d_model":false,"image_url":null,"decayed_at":null,"tle_current":{"epoch":"2026-09-19T22:40:38.535744Z","epoch_age_seconds":74928,"freshness":"FRESH","line1":"1 69207U 26114AB  26262.94489046  .00015033  00000+0  45508-3 0  9996","line2":"2 69207  53.1581 116.1226 0003915  15.3248 344.7872 15.34402795 19363","mean_motion":15.34402795,"eccentricity":0.0003915,"inclination_deg":53.1581,"raan_deg":116.1226,"arg_perigee_deg":15.3248,"mean_anomaly_deg":344.7872,"bstar":0.00045508,"rev_number":1936,"period_min":93.847587132426,"perigee_km":460.01674718897,"apogee_km":465.37311859242,"semimajor_km":6840.8319328907,"source":"CELESTRAK","updated_at":"2026-09-20T09:00:44.100858Z"}}}